EW8073 Weather Reports


time (UTC)temp
C
wind
direction
speed
KPH
gust
KPH
rain 1hr
cm
rain 24hr
cm
rain mn
cm
humidity
%
barometer
mb
20260508185933 19 355 3.2 12.9 0.00 0.00 0.00 44 1014.4
20260508185428 19 72 3.2 12.9 0.00 0.00 0.00 46 1014.5
20260508184921 18 74 3.2 6.4 0.00 0.00 0.00 45 1014.5
20260508184416 18 75 3.2 6.4 0.00 0.00 0.00 44 1014.6
20260508183911 18 84 3.2 8.0 0.00 0.00 0.00 46 1014.6
20260508182858 18 76 3.2 8.0 0.00 0.00 0.00 48 1014.7
20260508181340 17 120 3.2 8.0 0.00 0.00 0.00 49 1015.1
20260508180833 17 49 3.2 12.9 0.00 0.00 0.00 49 1015.1
20260508180327 17 86 3.2 12.9 0.00 0.00 0.00 49 1015.1
20260508174820 17 16 3.2 11.3 0.00 0.00 0.00 49 1015.2
20260508174320 17 5 3.2 11.3 0.00 0.00 0.00 50 1015.2
20260508173820 16 58 3.2 11.3 0.00 0.00 0.00 51 1015.2
20260508172820 16 296 3.2 12.9 0.00 0.00 0.00 50 1015.4
20260508172322 16 355 3.2 8.0 0.00 0.00 0.00 49 1015.4
20260508171817 16 311 3.2 9.7 0.00 0.00 0.00 51 1015.4
20260508171316 16 44 3.2 9.7 0.00 0.00 0.00 50 1015.5
20260508170814 16 28 3.2 11.3 0.00 0.00 0.00 51 1015.7
20260508170313 16 310 3.2 11.3 0.00 0.00 0.00 50 1015.7
20260508165314 15 350 3.2 8.0 0.00 0.00 0.00 51 1015.8
20260508164813 15 10 3.2 9.7 0.00 0.00 0.00 52 1015.8
20260508164314 15 291 3.2 9.7 0.00 0.00 0.00 52 1015.7
20260508163812 15 267 3.2 8.0 0.00 0.00 0.00 53 1015.7
20260508163311 15 5 3.2 8.0 0.00 0.00 0.00 54 1015.7
20260508162808 15 234 1.6 4.8 0.00 0.00 0.00 54 1015.7
20260508162307 15 243 1.6 4.8 0.00 0.00 0.00 55 1015.7
20260508161807 14 242 1.6 4.8 0.00 0.00 0.00 55 1015.7
20260508160806 14 238 0.0 6.4 0.00 0.00 0.00 58 1015.8
20260508160302 14 239 1.6 6.4 0.00 0.00 0.00 59 1015.8
20260508155803 14 239 1.6 4.8 0.00 0.00 0.00 60 1015.9
20260508155305 13 239 1.6 8.0 0.00 0.00 0.00 61 1015.9
20260508154803 13 240 1.6 8.0 0.00 0.00 0.00 62 1015.9
20260508154301 13 240 0.0 6.4 0.00 0.00 0.00 65 1015.9
20260508153803 13 239 0.0 3.2 0.00 0.00 0.00 67 1015.9
20260508153258 12 239 0.0 3.2 0.00 0.00 0.00 69 1016.0
20260508152759 12 239 0.0 4.8 0.00 0.00 0.00 69 1016.0
20260508152257 12 239 1.6 4.8 0.00 0.00 0.00 70 1015.9
20260508151759 12 239 1.6 4.8 0.00 0.00 0.00 71 1015.9
20260508151257 12 239 1.6 6.4 0.00 0.00 0.00 73 1015.9
20260508150759 11 240 1.6 6.4 0.00 0.00 0.00 74 1015.9
20260508150258 11 235 1.6 14.5 0.00 0.00 0.00 77 1015.9
20260508145759 11 234 1.6 14.5 0.00 0.00 0.00 79 1016.0
20260508144754 11 236 0.0 0.0 0.00 0.00 0.00 82 1016.1
20260508143753 10 237 1.6 6.4 0.00 0.00 0.00 84 1016.1
20260508143254 10 238 0.0 6.4 0.00 0.00 0.00 84 1016.1
20260508142753 10 235 1.6 6.4 0.00 0.00 0.00 85 1016.1
20260508142251 10 234 1.6 6.4 0.00 0.00 0.00 86 1016.1
20260508141751 10 229 0.0 6.4 0.00 0.00 0.00 86 1016.1
20260508141251 10 227 0.0 6.4 0.00 0.00 0.00 87 1016.0
20260508140252 9 238 0.0 4.8 0.00 0.00 0.00 87 1016.1
20260508135752 8 254 0.0 1.6 0.00 0.00 0.00 88 1016.2
20260508135245 8 255 0.0 4.8 0.00 0.00 0.00 88 1016.5
20260508134739 8 255 0.0 4.8 0.00 0.00 0.00 88 1016.4
20260508134233 8 53 0.0 3.2 0.00 0.00 0.00 88 1016.4
20260508133728 8 53 0.0 1.6 0.00 0.00 0.00 88 1016.5
20260508133218 7 53 0.0 0.0 0.00 0.00 0.00 88 1016.5
20260508132717 7 0 0.0 0.0 0.00 0.00 0.00 88 1016.5
20260508132210 7 53 0.0 0.0 0.00 0.00 0.00 87 1016.5
20260508131703 7 53 0.0 0.0 0.00 0.00 0.00 87 1016.4
20260508130146 7 53 0.0 0.0 0.00 0.00 0.00 87 1016.4
20260508125641 6 53 0.0 0.0 0.00 0.00 0.00 87 1016.4
20260508125133 6 53 0.0 0.0 0.00 0.00 0.00 87 1016.5
20260508124628 6 53 0.0 0.0 0.00 0.00 0.00 87 1016.5
20260508124122 6 53 0.0 0.0 0.00 0.00 0.00 87 1016.5
20260508123616 6 53 0.0 0.0 0.00 0.00 0.00 86 1016.6
20260508123110 6 53 0.0 0.0 0.00 0.00 0.00 86 1016.5
20260508122604 6 53 0.0 0.0 0.00 0.00 0.00 86 1016.4
20260508122058 6 53 0.0 0.0 0.00 0.00 0.00 86 1016.2
20260508121553 6 53 0.0 0.0 0.00 0.00 0.00 85 1016.0
20260508121045 5 53 0.0 0.0 0.00 0.00 0.00 85 1016.0
20260508120033 5 53 0.0 0.0 0.00 0.00 0.00 85 1015.5
20260508115527 5 53 0.0 0.0 0.00 0.00 0.00 85 1015.4
20260508115021 5 53 0.0 0.0 0.00 0.00 0.00 85 1015.3
20260508114515 5 53 0.0 0.0 0.00 0.00 0.00 84 1015.1
20260508114009 5 53 0.0 0.0 0.00 0.00 0.00 84 1015.1
20260508113504 5 53 0.0 0.0 0.00 0.00 0.00 84 1015.1
20260508112959 5 53 0.0 0.0 0.00 0.00 0.00 84 1015.1
20260508112451 5 53 0.0 0.0 0.00 0.00 0.00 84 1015.0
20260508111945 6 53 0.0 0.0 0.00 0.00 0.00 84 1014.7
20260508111439 6 53 0.0 0.0 0.00 0.00 0.00 84 1014.8
20260508110934 6 53 0.0 0.0 0.00 0.00 0.00 84 1014.7
20260508110429 6 53 0.0 0.0 0.00 0.00 0.00 84 1014.7
20260508105921 6 53 0.0 0.0 0.00 0.00 0.00 84 1015.0
20260508105415 6 53 0.0 0.0 0.00 0.00 0.00 84 1015.0
20260508104909 6 53 0.0 0.0 0.00 0.00 0.00 84 1014.7
20260508104403 6 53 0.0 0.0 0.00 0.00 0.00 84 1014.8
20260508103858 6 53 0.0 0.0 0.00 0.00 0.00 84 1015.0
20260508103353 6 53 0.0 0.0 0.00 0.00 0.00 84 1014.7
20260508102845 6 53 0.0 0.0 0.00 0.00 0.00 84 1014.7
20260508102339 6 53 0.0 0.0 0.00 0.00 0.00 84 1014.8
20260508101833 6 53 0.0 0.0 0.00 0.00 0.00 84 1014.7
20260508101328 6 53 0.0 0.0 0.00 0.00 0.00 84 1015.0
20260508100820 6 53 0.0 0.0 0.00 0.00 0.00 84 1014.8
20260508100319 6 53 0.0 0.0 0.00 0.00 0.00 83 1014.6
20260508095805 7 53 0.0 1.6 0.00 0.00 0.00 83 1014.0
20260508095259 7 53 0.0 1.6 0.00 0.00 0.00 83 1013.9
20260508094754 7 53 0.0 1.6 0.00 0.00 0.00 83 1013.7
20260508092225 7 53 0.0 0.0 0.00 0.00 0.00 81 1013.8
20260508091717 7 53 0.0 0.0 0.00 0.00 0.00 81 1013.9
20260508091211 7 53 0.0 0.0 0.00 0.00 0.00 81 1013.8
20260508090705 7 53 0.0 0.0 0.00 0.00 0.00 81 1013.9
20260508090200 7 53 0.0 0.0 0.00 0.00 0.00 81 1013.9
20260508085652 7 53 0.0 0.0 0.00 0.00 0.00 81 1013.9
20260508085144 8 53 0.0 0.0 0.00 0.00 0.00 81 1014.0
20260508084638 8 53 0.0 0.0 0.00 0.00 0.00 80 1014.1
20260508084133 8 53 0.0 1.6 0.00 0.00 0.00 80 1014.4
20260508083626 8 53 0.0 1.6 0.00 0.00 0.00 80 1014.3
20260508083129 8 53 0.0 0.0 0.00 0.00 0.00 79 1014.5
20260508081603 8 53 0.0 0.0 0.00 0.00 0.00 79 1014.8
20260508081055 8 53 0.0 0.0 0.00 0.00 0.00 79 1014.8
20260508080549 8 53 0.0 0.0 0.00 0.00 0.00 78 1015.0
20260508080043 9 53 0.0 0.0 0.00 0.00 0.00 78 1015.0
20260508075537 9 53 0.0 0.0 0.00 0.00 0.00 77 1015.0
20260508075033 9 53 0.0 0.0 0.00 0.00 0.00 77 1014.8
20260508074526 9 53 0.0 0.0 0.00 0.00 0.00 77 1014.7
20260508074019 10 53 0.0 0.0 0.00 0.00 0.00 76 1014.8
20260508073513 10 53 0.0 0.0 0.00 0.00 0.00 76 1014.7
20260508073009 10 53 0.0 0.0 0.00 0.00 0.00 76 1014.8
20260508072502 10 53 0.0 0.0 0.00 0.00 0.00 75 1015.0
20260508071954 10 53 0.0 0.0 0.00 0.00 0.00 75 1014.8
20260508070940 10 53 0.0 0.0 0.00 0.00 0.00 74 1014.6
20260508070435 11 53 0.0 0.0 0.00 0.00 0.00 74 1014.5
20260508065929 11 53 0.0 0.0 0.00 0.00 0.00 73 1014.4
20260508065423 11 53 0.0 0.0 0.00 0.00 0.00 72 1014.3
20260508064916 11 53 0.0 0.0 0.00 0.00 0.00 72 1014.1
20260508064411 11 53 0.0 0.0 0.00 0.00 0.00 72 1014.1
20260508063910 11 53 0.0 0.0 0.00 0.00 0.00 71 1014.1
20260508062909 11 53 0.0 4.8 0.00 0.00 0.00 70 1014.1
20260508062409 11 52 0.0 0.0 0.00 0.00 0.00 69 1014.3
20260508061908 12 52 0.0 0.0 0.00 0.00 0.00 68 1014.1
20260508060909 12 0 0.0 0.0 0.00 0.00 0.00 67 1014.3
20260508060409 11 0 0.0 4.8 0.00 0.00 0.00 66 1014.8
20260508055912 12 0 0.0 4.8 0.00 0.00 0.00 65 1015.5
20260508054353 12 0 0.0 0.0 0.00 0.00 0.00 63 1014.5
20260508052330 12 0 0.0 0.0 0.00 0.00 0.00 63 1013.8
20260508051823 12 101 0.0 0.0 0.00 0.00 0.00 63 1013.6
20260508051317 12 101 0.0 0.0 0.00 0.00 0.00 62 1013.6
20260508050811 12 101 0.0 3.2 0.00 0.00 0.00 62 1013.4
20260508050306 12 101 0.0 3.2 0.00 0.00 0.00 62 1013.7
20260508045253 12 101 0.0 0.0 0.00 0.00 0.00 61 1013.6
20260508044747 12 101 0.0 0.0 0.00 0.00 0.00 61 1013.6
20260508044241 12 101 0.0 0.0 0.00 0.00 0.00 61 1013.8
20260508043737 12 101 0.0 0.0 0.00 0.00 0.00 60 1013.7
20260508043230 12 101 0.0 0.0 0.00 0.00 0.00 60 1013.7
20260508042723 12 101 0.0 0.0 0.00 0.00 0.00 59 1014.0
20260508042218 13 101 0.0 0.0 0.00 0.00 0.00 59 1014.1
20260508041711 13 101 0.0 0.0 0.00 0.00 0.00 58 1014.0
20260508041206 13 101 0.0 0.0 0.00 0.00 0.00 58 1013.7
20260508040700 13 102 0.0 0.0 0.00 0.00 0.00 57 1013.6
20260508040154 13 102 0.0 0.0 0.00 0.00 0.00 57 1013.3
20260508034636 14 102 0.0 1.6 0.00 0.00 0.00 54 1013.3
20260508034130 14 101 0.0 1.6 0.00 0.00 0.00 53 1013.6
20260508033624 14 101 0.0 0.0 0.00 0.00 0.00 53 1013.6
20260508033118 15 101 0.0 0.0 0.00 0.00 0.00 51 1013.6
20260508032612 15 101 0.0 6.4 0.00 0.00 0.00 50 1013.7
20260508032105 15 101 1.6 8.0 0.00 0.00 0.00 49 1013.4
20260508031600 15 101 1.6 8.0 0.00 0.00 0.00 48 1013.2
20260508031053 15 72 0.0 0.0 0.00 0.00 0.00 47 1013.1
20260508030548 15 346 0.0 0.0 0.00 0.00 0.00 47 1013.0
20260508030042 15 344 0.0 0.0 0.00 0.00 0.00 47 1013.0
20260508025535 15 340 0.0 0.0 0.00 0.00 0.00 45 1012.9
20260508025029 16 340 0.0 0.0 0.00 0.00 0.00 44 1012.7
20260508024523 16 340 0.0 0.0 0.00 0.00 0.00 44 1012.7
20260508024018 16 340 0.0 0.0 0.00 0.00 0.00 43 1012.6
20260508023015 16 340 0.0 0.0 0.00 0.00 0.00 43 1012.5
20260508022516 16 340 0.0 0.0 0.00 0.00 0.00 42 1012.3
20260508022015 16 340 0.0 0.0 0.00 0.00 0.00 42 1012.2
20260508021515 16 340 0.0 0.0 0.00 0.00 0.00 42 1012.0
20260508021012 16 340 0.0 0.0 0.00 0.00 0.00 41 1012.2
20260508020511 16 340 0.0 6.4 0.00 0.00 0.00 41 1012.3
20260508020011 16 340 1.6 8.0 0.00 0.00 0.00 40 1012.3
20260508015510 17 355 1.6 8.0 0.00 0.00 0.00 40 1012.3
20260508015012 17 22 0.0 0.0 0.00 0.00 0.00 40 1012.3
20260508014012 17 36 1.6 8.0 0.00 0.00 0.00 38 1011.9
20260508013507 17 26 0.0 8.0 0.00 0.00 0.00 38 1011.7
20260508013010 17 94 0.0 4.8 0.00 0.00 0.00 37 1011.6
20260508012507 18 96 1.6 6.4 0.00 0.00 0.00 37 1011.6
20260508012007 18 69 3.2 12.9 0.00 0.00 0.00 36 1011.5
20260508010507 19 342 0.0 3.2 0.00 0.00 0.00 32 1011.1
20260508010007 19 342 0.0 3.2 0.00 0.00 0.00 31 1011.0
20260508005506 20 342 0.0 0.0 0.00 0.00 0.00 31 1010.9
20260508005003 20 342 0.0 0.0 0.00 0.00 0.00 31 1010.9
20260508004502 20 342 0.0 0.0 0.00 0.00 0.00 30 1010.8
20260508004002 20 342 0.0 0.0 0.00 0.00 0.00 30 1010.8
20260508003503 20 342 0.0 3.2 0.00 0.00 0.00 30 1010.8
20260508003002 20 342 0.0 3.2 0.00 0.00 0.00 29 1010.6
20260508002502 20 342 0.0 0.0 0.00 0.00 0.00 30 1010.8
20260508002004 20 342 0.0 0.0 0.00 0.00 0.00 29 1010.6
20260508001003 20 342 0.0 0.0 0.00 0.00 0.00 28 1010.6
20260508000457 20 342 0.0 0.0 0.00 0.00 0.00 29 1010.6
20260507235951 20 342 0.0 0.0 0.00 0.00 0.00 29 1010.8
20260507235444 20 342 0.0 0.0 0.00 0.00 0.00 29 1010.6
20260507234938 20 342 0.0 6.4 0.00 0.00 0.00 28 1010.8
20260507233931 20 341 0.0 4.8 0.00 0.00 0.00 26 1010.6
20260507232426 20 277 1.6 4.8 0.00 0.00 0.00 26 1010.8
20260507231926 20 277 1.6 8.0 0.00 0.00 0.00 26 1010.8
20260507231422 20 297 3.2 8.0 0.00 0.00 0.00 26 1010.8
20260507230422 21 293 3.2 9.7 0.00 0.00 0.00 24 1011.0
20260507225922 21 308 0.0 8.0 0.00 0.00 0.00 24 1011.0
20260507225423 21 330 0.0 8.0 0.00 0.00 0.00 24 1011.0
20260507224420 22 294 3.2 11.3 0.00 0.00 0.00 23 1011.0
20260507223918 22 259 4.8 19.3 0.00 0.00 0.00 24 1011.1
20260507222418 22 313 4.8 17.7 0.00 0.00 0.00 23 1011.1
20260507221918 22 278 4.8 12.9 0.00 0.00 0.00 24 1011.1
20260507221416 22 200 4.8 12.9 0.00 0.00 0.00 24 1011.2
20260507220411 22 230 6.4 14.5 0.00 0.00 0.00 25 1011.2
20260507215400 21 355 3.2 12.9 0.00 0.00 0.00 26 1011.5
20260507214854 20 257 3.2 11.3 0.00 0.00 0.00 27 1011.6
20260507214348 20 244 4.8 17.7 0.00 0.00 0.00 27 1011.7
20260507213842 20 216 4.8 17.7 0.00 0.00 0.00 25 1011.8
20260507212830 21 225 6.4 17.7 0.00 0.00 0.00 25 1011.9
20260507212324 21 254 6.4 19.3 0.00 0.00 0.00 25 1011.9
20260507211818 22 291 6.4 19.3 0.00 0.00 0.00 26 1012.0
20260507211312 22 280 6.4 16.1 0.00 0.00 0.00 24 1012.0
20260507210806 22 247 6.4 16.1 0.00 0.00 0.00 26 1012.2
20260507210300 22 263 6.4 17.7 0.00 0.00 0.00 25 1012.2
20260507205755 21 296 6.4 19.3 0.00 0.00 0.00 26 1012.2
20260507205248 22 223 6.4 19.3 0.00 0.00 0.00 25 1012.3
20260507204742 21 355 6.4 17.7 0.00 0.00 0.00 27 1012.3
20260507204236 21 254 6.4 17.7 0.00 0.00 0.00 26 1012.4
20260507203731 21 306 6.4 17.7 0.00 0.00 0.00 25 1012.4
20260507203224 21 234 6.4 14.5 0.00 0.00 0.00 25 1012.5
20260507202718 21 9 6.4 17.7 0.00 0.00 0.00 26 1012.6
20260507202212 21 197 4.8 17.7 0.00 0.00 0.00 26 1012.6
20260507201708 21 9 4.8 14.5 0.00 0.00 0.00 28 1012.7
20260507201200 21 80 6.4 19.3 0.00 0.00 0.00 26 1012.9
20260507200655 21 259 6.4 19.3 0.00 0.00 0.00 27 1012.9
20260507200148 20 251 4.8 16.1 0.00 0.00 0.00 27 1012.9
20260507195642 20 5 4.8 17.7 0.00 0.00 0.00 28 1013.1
20260507195136 20 336 6.4 17.7 0.00 0.00 0.00 28 1013.2
20260507194630 20 226 6.4 17.7 0.00 0.00 0.00 28 1013.2
20260507194125 20 249 6.4 17.7 0.00 0.00 0.00 28 1013.2
20260507193618 20 273 6.4 16.1 0.00 0.00 0.00 30 1013.2
20260507193112 19 250 6.4 17.7 0.00 0.00 0.00 29 1013.1
20260507192606 19 246 8.0 24.1 0.00 0.00 0.00 31 1013.1
20260507192100 19 214 6.4 24.1 0.00 0.00 0.00 29 1013.2
20260507191554 19 334 4.8 17.7 0.00 0.00 0.00 30 1013.2
20260507191047 19 245 4.8 16.1 0.00 0.00 0.00 31 1013.4
20260507190541 19 36 4.8 16.1 0.00 0.00 0.00 30 1013.6